Regional Weather Roundup
Issued by NWS Cleveland, OH

Home | Current Version | Previous Version | Graphics & Text | Print | Product List | Glossary On
Versions: 1 2 3 4 5 6 7 8 9 10 11 12 13 14 15 16 17 18 19 20 21 22 23 24 25 26 27 28 29 30 31 32 33 34 35 36 37 38 39 40 41 42 43 44 45 46 47 48 49 50
000
ASUS41 KCLE 202002
RWRCLE
OHIO REGIONAL WEATHER ROUNDUP
NATIONAL WEATHER SERVICE CLEVELAND, OH
300 PM EST THU NOV 20 2014

NOTE: "FAIR" INDICATES FEW OR NO CLOUDS BELOW 12,000 FEET WITH NO
SIGNIFICANT WEATHER AND/OR OBSTRUCTIONS TO VISIBILITY.

OHZ001>008-015>018-024>027-034-035-043-044-202100-
   NORTHWEST OHIO

CITY           SKY/WX    TMP DP  RH WIND       PRES   REMARKS
DEFIANCE       CLOUDY    28  11  48 W9G21     30.03R WCI  19
FINDLAY        CLOUDY    26  14  60 W28       30.02S WCI  10
TOLEDO EXPRESS CLOUDY    26  11  52 W23       29.99R WCI  11
TOLEDO EXEC    CLOUDY    27  11  51 W24G31    30.00S WCI  12
LIMA           CLOUDY    27  14  58 W17       30.05R WCI  14
$$

OHZ009>014-019>023-028>033-038-089-202100-
   NORTHEAST OHIO

CITY           SKY/WX    TMP DP  RH WIND       PRES   REMARKS
CLE-HOPKINS    PTSUNNY   26  13  57 W18       30.00S WCI  13
CLE-LAKEFRONT  PTSUNNY   27  13  55 SW24G35   29.97S WCI  12
CUY CO. ARPT   CLOUDY    28  14  54 W16G25    29.96S WCI  17
LORAIN-ELYRIA  FLURRIES  25  12  58 W24G32    29.99S WCI   9
ASHTABULA      CLOUDY    26  10  50 SW24G36   29.93R WCI  11
AKRON-CANTON   PTSUNNY   26  10  50 W18G29    29.98R WCI  13
WOOSTER        CLOUDY    26  11  52 W23G30    30.00R WCI  11
MANSFIELD      PTSUNNY   24  12  60 SW18G30   29.98S WCI  10
YOUNGSTOWN     PTSUNNY   25  10  53 SW23G32   29.94S WCI  10
$$

OHZ042-051>053-060>062-070>072-077>081-202100-
  SOUTHWEST OHIO

CITY           SKY/WX    TMP DP  RH WIND       PRES   REMARKS
CINC-COVINGTON MOSUNNY   30  13  49 W12       30.13S WCI  20
CINC-LUNKEN    MOSUNNY   32  15  49 SW13      30.16F WCI  22
HAMILTON       PTSUNNY   32  15  49 SW13G18   30.15S WCI  22
DAYTON         PTSUNNY   28  16  60 W20       30.09S WCI  15
WRIGHT-PAT AFB MOSUNNY   29  15  55 SW21G28   30.09S WCI  16
DAYTON GENERAL MOSUNNY   29  14  53 W12G25    30.10R WCI  19
WILMINGTON     SUNNY     28  13  53 W17       30.09R WCI  16
$$

OHZ036-037-039>041-045>050-054>059-063>069-073>076-082>088-202100-
  CENTRAL AND SOUTHEAST OHIO

CITY           SKY/WX    TMP DP  RH WIND       PRES   REMARKS
COLUMBUS       MOSUNNY   28  13  53 W20G28    30.08S WCI  15
OSU AIRPORT    PTSUNNY   28  13  53 W16G26    30.07R WCI  16
BOLTON FIELD   CLOUDY    27  16  63 SW18G24   30.08F WCI  13
RICKENBACK AFB NOT AVBL
NEWARK         CLOUDY    27  13  55 SW16G25   30.07S WCI  15
MARION         MOSUNNY   25  12  58 W15G30    30.04R WCI  13
LANCASTER      PTSUNNY   28  15  58 W10       30.09F WCI  19
ZANESVILLE     PTSUNNY   26  12  55 W15G23    30.07S WCI  14
NEW PHILLY     CLOUDY    28  12  51 W8G16     30.04S WCI  20
$$


USA.gov is the U.S. government's official web portal to all federal, state and local government web resources and services.